Flight Track Log - Related Links

Times and Time Zones

All times are in EDT time to prevent confusion due to time zone crossing. See the TAP1625 flight status page for this flight to view local times or setup timezone preferences in your user account.


Time Position Orientation Groundspeed Altitude Reporting Facility
EDT Latitude Longitude Course Direction KTS MPH feet Rate Location/Type
Thu 09:22:34 AM 38.7540 -9.1510 207° Southwest 160 184 1,500  Level FlightAware ADS-B
Thu 09:22:54 AM 38.7400 -9.1600 205° Southwest 165 190 2,100 1,309 Climbing FlightAware ADS-B
Thu 09:23:29 AM 38.7150 -9.1750 214° Southwest 199 229 2,700 960 Climbing FlightAware ADS-B
Thu 09:23:44 AM 38.6990 -9.1890 227° Southwest 237 273 2,900 1,050 Climbing FlightAware ADS-B
Thu 09:24:09 AM 38.6770 -9.2190 226° Southwest 275 316 3,400 1,200 Climbing FlightAware ADS-B
Thu 09:24:24 AM 38.6680 -9.2310 228° Southwest 292 336 3,700 2,727 Climbing FlightAware ADS-B
Thu 09:25:04 AM 38.6280 -9.2870 230° Southwest 292 336 5,900 3,200 Climbing FlightAware ADS-B
Thu 09:25:09 AM 38.6240 -9.2930 230° Southwest 293 337 6,100 2,667 Climbing FlightAware ADS-B
Thu 09:25:49 AM 38.5910 -9.3430 229° Southwest 293 337 7,900 2,657 Climbing FlightAware ADS-B
Thu 09:26:19 AM 38.5630 -9.3840 231° Southwest 298 343 9,200 2,280 Climbing FlightAware ADS-B
Thu 09:26:39 AM 38.5490 -9.4060 229° Southwest 302 348 9,800 2,400 Climbing FlightAware ADS-B
Thu 09:27:29 AM 38.5020 -9.4760 229° Southwest 305 351 12,000 2,786 Climbing FlightAware ADS-B
Thu 09:28:59 AM 38.4150 -9.6040 227° Southwest 299 344 16,300 2,720 Climbing FlightAware ADS-B
Thu 09:29:59 AM 38.3610 -9.6790 227° Southwest 291 335 18,800 2,016 Climbing FlightAware ADS-B
Thu 09:31:04 AM 38.3080 -9.7520 229° Southwest 303 349 20,500 139 Climbing FlightAware ADS-B
Thu 10:28:11 AM 33.8910 -15.6630 218° Southwest 418 481 26,900 87 Climbing FlightAware ADS-B
Thu 10:28:51 AM 33.8370 -15.7140 219° Southwest 411 473 25,500 -2,259 Descending FlightAware ADS-B
Thu 10:29:36 AM 33.7660 -15.7830 218° Southwest 402 463 23,700 -2,400 Descending FlightAware ADS-B
Thu 10:30:11 AM 33.7130 -15.8330 219° Southwest 393 452 22,300 -2,250 Descending FlightAware ADS-B
Thu 10:30:56 AM 33.6500 -15.8940 218° Southwest 387 445 20,700 -2,200 Descending FlightAware ADS-B
Thu 10:31:41 AM 33.5860 -15.9550 219° Southwest 381 438 19,000 -2,100 Descending FlightAware ADS-B
Thu 10:32:16 AM 33.5400 -15.9990 218° Southwest 367 422 17,900 -1,835 Descending FlightAware ADS-B
Thu 10:33:06 AM 33.4790 -16.0570 219° Southwest 343 395 16,400 -1,867 Descending FlightAware ADS-B
Thu 10:33:46 AM 33.4280 -16.1060 218° Southwest 325 374 15,100 -1,835 Descending FlightAware ADS-B
Thu 10:34:31 AM 33.3740 -16.1570 219° Southwest 317 365 13,800 -1,765 Descending FlightAware ADS-B
Thu 10:35:11 AM 33.3280 -16.2010 218° Southwest 321 369 12,600 -1,800 Descending FlightAware ADS-B
Thu 10:35:51 AM 33.2810 -16.2450 218° Southwest 324 373 11,400 -1,765 Descending FlightAware ADS-B
Thu 10:36:36 AM 33.2300 -16.2930 220° Southwest 318 366 10,100 -1,700 Descending FlightAware ADS-B
Thu 10:36:51 AM 33.2120 -16.3110 218° Southwest 320 368 9,700 -1,745 Descending FlightAware ADS-B
Thu 10:37:31 AM 33.1650 -16.3550 218° Southwest 321 369 8,500 -1,714 Descending FlightAware ADS-B
Thu 10:38:01 AM 33.1300 -16.3880 219° Southwest 320 368 7,700 -1,636 Descending FlightAware ADS-B
Thu 10:38:26 AM 33.1020 -16.4150 218° Southwest 319 367 7,000 -1,636 Descending FlightAware ADS-B
Thu 10:38:56 AM 33.0670 -16.4480 218° Southwest 319 367 6,200 -1,560 Descending FlightAware ADS-B
Thu 10:39:16 AM 33.0430 -16.4700 218° Southwest 323 372 5,700 -1,560 Descending FlightAware ADS-B
Thu 10:39:46 AM 33.0080 -16.5030 218° Southwest 325 374 4,900 -1,680 Descending FlightAware ADS-B
Thu 10:40:06 AM 32.9840 -16.5250 218° Southwest 326 375 4,300 -1,600 Descending FlightAware ADS-B
Thu 10:40:31 AM 32.9530 -16.5540 218° Southwest 323 372 3,700 -1,418 Descending FlightAware ADS-B
Thu 10:41:01 AM 32.9220 -16.5830 210° Southwest 321 369 3,000 -600 Descending FlightAware ADS-B
Thu 10:43:51 AM 32.7570 -16.6960 209° Southwest 184 212 1,700 -568 Descending FlightAware ADS-B
Thu 10:44:11 AM 32.7420 -16.7060 246° West 174 200 1,200 -1,050 Descending FlightAware ADS-B
Thu 10:44:31 AM 32.7360 -16.7220 238° Southwest 153 176 1,000 -720 Descending FlightAware ADS-B
Thu 10:45:01 AM 32.7250 -16.7430 225° Southwest 144 166 600 -764 Descending FlightAware ADS-B
Thu 10:45:26 AM 32.7150 -16.7550 225° Southwest 142 163 300 -720 Descending FlightAware ADS-B

Login

Don't have an account? Register now (free) for customized features, flight alerts, and more!